GFSSW_850_thetae_276.txt.gz
Theta_e
298 298 299 299 299 300 300 300 300 300 300 300 300 301 302 301 302 299 300 300 299 299 300 302 301 300 303 304 304 305 307 308 308 308 308 305 303 303 303 302 303 303 303 303 304
298 298 299 299 300 300 300 300 300 300 300 299 299 300 301 303 303 299 299 300 300 300 301 302 301 302 303 304 303 306 308 306 304 303 303 303 303 303 303 303 303 304 305 305 305
299 299 299 300 300 299 299 300 299 299 299 299 300 301 302 302 304 302 299 300 300 301 303 304 302 302 304 304 304 305 306 304 303 303 302 302 302 304 304 303 304 305 305 305 304
300 300 300 299 298 298 298 300 299 299 299 300 300 298 300 303 305 299 300 300 300 301 303 304 304 304 305 305 304 305 304 302 303 303 302 303 304 304 304 304 305 304 304 304 304
301 302 301 299 299 298 299 299 299 299 299 299 300 299 301 301 301 299 300 301 300 302 303 304 304 305 306 305 305 305 305 305 305 304 304 304 304 303 304 304 304 304 303 303 303
302 303 302 301 300 299 299 299 299 298 298 298 298 299 301 302 299 300 301 301 300 302 303 303 304 304 305 305 305 304 304 304 305 304 304 304 303 303 304 304 304 304 303 303 303
305 304 305 305 304 303 301 299 299 298 298 298 297 299 300 300 300 301 301 301 300 301 303 301 303 304 305 306 304 304 305 305 306 305 304 302 303 303 304 304 304 304 303 303 302
314 312 307 307 308 308 305 300 299 298 298 297 299 300 300 297 298 300 301 301 301 301 301 301 302 304 304 304 305 305 306 306 307 305 304 303 302 304 305 304 304 303 303 302 300
315 315 315 313 311 310 310 304 301 298 298 297 298 301 299 298 298 300 300 300 301 302 301 301 303 304 306 306 309 307 303 305 305 305 305 304 302 303 304 304 303 303 301 299 299
316 315 315 315 315 311 311 309 305 299 301 297 297 300 299 298 298 300 301 300 301 303 305 304 305 308 305 305 304 302 304 304 304 305 305 303 303 303 304 302 302 300 300 300 299
316 317 316 316 315 313 312 308 306 304 302 297 297 298 298 298 298 301 301 302 303 305 307 303 310 306 303 303 303 303 304 304 305 304 303 303 302 302 303 301 301 300 299 298 298
316 316 317 317 316 313 312 305 300 302 299 298 295 296 297 298 300 301 302 303 301 304 305 307 310 303 303 303 303 303 304 304 304 303 302 302 302 302 302 301 300 299 299 298 297
316 315 316 317 315 315 313 306 302 298 302 298 296 296 296 298 300 301 301 302 300 301 301 304 305 302 302 303 303 303 303 301 301 302 302 302 302 303 302 301 300 299 298 297 296
317 316 316 316 315 314 313 309 305 299 304 304 298 298 298 299 301 299 300 301 304 301 302 304 302 302 303 303 302 301 303 302 301 297 299 301 299 302 302 302 300 299 298 297 295
316 316 315 316 314 314 311 311 307 302 314 301 297 295 297 300 299 301 299 301 303 302 300 305 302 303 303 303 302 302 301 301 302 297 298 302 298 302 301 301 298 297 297 296 294
314 315 315 314 312 312 313 311 308 312 315 300 297 298 300 300 301 300 302 301 300 300 301 302 300 299 302 301 301 302 301 301 301 297 301 296 296 299 301 299 296 297 296 295 293
312 312 311 310 311 312 312 310 312 315 301 306 300 298 298 300 301 301 302 303 303 302 305 304 302 299 298 302 302 300 297 298 298 300 300 293 298 298 299 297 296 295 295 293 292
311 311 310 309 309 311 310 306 316 313 307 297 297 298 300 299 300 299 302 304 300 300 301 299 299 299 299 301 300 300 297 296 296 298 300 294 296 300 297 298 296 295 294 292 291
311 310 308 309 309 308 309 312 315 309 299 299 302 302 304 299 298 300 302 303 301 299 300 300 301 298 298 299 299 300 299 298 294 293 297 296 299 299 297 292 294 294 293 291 290
310 309 309 309 309 307 305 313 310 298 298 299 307 302 302 301 300 301 303 302 301 299 298 298 296 298 298 299 298 298 297 295 294 296 296 296 295 298 290 289 291 292 292 291 290
310 308 306 307 307 305 309 309 305 297 297 299 302 298 299 300 300 303 302 300 300 298 298 297 294 297 297 294 298 297 296 294 294 297 300 297 296 292 289 288 289 290 292 291 290
308 305 304 304 303 301 305 304 296 297 296 297 297 298 299 300 301 298 302 301 299 298 298 298 299 294 297 301 298 299 297 298 293 293 298 300 299 293 289 288 293 293 292 291 290
308 304 303 303 306 304 299 298 297 298 297 297 298 297 296 298 298 300 300 297 298 298 298 297 295 293 299 297 296 295 298 299 296 297 294 296 296 290 292 290 293 293 293 291 290
307 302 300 300 301 303 303 304 302 297 297 296 299 296 297 297 297 298 299 297 297 298 296 297 298 293 295 294 292 294 297 298 296 291 294 297 298 298 292 289 291 293 292 292 288
307 304 303 302 301 302 304 305 303 301 297 296 297 297 298 298 297 295 297 297 297 297 297 296 291 296 296 295 295 295 294 294 294 296 292 295 291 296 295 294 293 294 292 290 288
306 304 303 302 302 302 303 304 303 302 298 298 297 298 298 297 299 299 298 298 298 296 296 295 290 289 289 293 294 293 294 294 293 292 291 294 295 295 295 295 294 292 292 288 287
306 306 305 304 302 303 303 303 303 301 301 301 297 299 297 297 297 297 296 296 296 296 297 292 291 287 291 292 290 290 289 290 291 290 289 290 292 286 286 285 292 292 291 287 287

GFSSW_850_thetae_279.txt.gz
Theta_e
298 299 299 300 300 300 300 300 300 300 300 299 300 301 302 301 301 300 301 300 300 300 301 302 301 302 303 302 303 305 301 302 302 302 303 302 300 302 302 302 303 302 302 303 304
299 299 300 299 298 298 300 300 299 299 299 299 300 301 302 302 302 299 299 300 300 301 302 302 302 303 303 304 303 303 300 303 301 301 300 301 301 302 302 302 303 304 304 304 304
301 300 300 299 298 298 299 300 299 299 299 300 300 301 301 305 303 300 300 300 301 301 303 304 303 303 303 304 303 302 302 301 302 303 302 302 302 303 303 301 303 304 304 304 304
303 302 301 300 299 299 299 300 299 299 299 300 298 299 301 301 304 299 300 301 301 302 302 304 304 304 303 303 304 304 303 303 302 304 303 302 303 303 303 303 304 304 304 304 303
304 304 305 304 305 304 300 299 299 299 298 300 300 299 301 300 299 300 301 301 301 302 302 303 304 305 303 304 304 304 304 304 304 304 304 304 303 302 303 303 304 304 304 303 303
306 307 308 309 309 309 305 300 300 299 299 298 299 301 302 299 300 300 301 301 301 302 302 303 303 304 304 304 304 303 303 303 304 304 304 303 302 301 303 304 304 304 304 303 303
315 314 312 312 311 311 311 304 302 299 299 298 298 299 299 299 299 300 301 301 301 301 302 302 303 304 304 305 304 303 303 303 304 304 303 302 301 300 304 304 304 303 303 302 302
315 315 314 314 314 312 312 308 304 299 300 297 299 300 298 298 298 300 301 301 301 301 301 302 304 304 304 304 304 304 302 302 304 304 304 302 301 301 304 303 303 303 302 302 301
316 315 315 315 315 313 314 310 306 300 304 297 299 301 298 299 299 299 301 301 302 301 301 302 304 304 305 303 301 299 296 302 302 304 303 302 302 302 303 303 302 301 301 301 299
315 316 316 316 316 314 314 313 309 303 307 299 298 301 299 298 298 300 301 301 302 304 305 303 305 299 296 296 295 296 297 302 302 303 303 301 300 301 302 302 301 300 300 299 298
315 315 315 316 316 315 315 314 310 307 305 299 296 298 298 298 299 301 301 303 302 304 301 303 300 296 301 301 302 302 302 300 301 303 301 301 300 300 301 301 299 300 299 299 298
316 315 315 316 316 315 314 312 308 307 301 299 295 296 297 298 300 301 301 303 300 298 301 300 300 301 302 302 302 301 296 296 300 301 300 299 300 300 300 299 300 299 299 298 297
317 317 315 316 316 314 314 311 307 301 301 298 296 296 296 298 299 300 300 302 298 295 295 297 303 301 302 301 300 300 297 297 299 299 298 299 297 301 300 299 300 299 298 297 296
315 316 315 315 315 314 312 312 307 301 298 302 297 297 298 298 301 300 299 300 302 295 298 299 301 301 302 301 298 296 301 300 299 293 294 298 295 299 300 300 299 297 297 295 295
316 313 316 314 314 313 311 312 309 303 307 299 297 295 298 299 299 301 300 301 302 298 292 297 301 302 299 301 299 298 299 300 300 289 294 294 293 298 300 300 297 295 295 295 294
311 312 312 312 311 310 312 311 308 306 307 296 296 297 296 300 300 300 301 301 300 300 299 296 299 298 299 299 299 300 297 296 295 289 291 291 292 297 298 299 296 295 295 294 293
307 310 310 308 309 309 310 310 306 306 298 298 297 297 296 297 299 300 300 302 298 294 294 297 299 298 298 300 299 295 289 288 290 291 296 287 295 297 297 295 295 294 294 293 292
309 310 309 308 308 308 309 306 310 302 307 297 296 297 298 297 300 297 299 299 299 298 290 291 292 293 299 299 295 297 291 289 288 293 293 286 294 296 296 295 294 294 293 292 291
310 309 308 307 308 308 308 310 303 309 301 299 299 296 294 298 294 294 300 298 299 295 294 291 295 297 298 299 295 294 293 295 287 284 292 290 292 296 295 289 292 293 293 292 291
309 308 308 308 307 308 305 306 306 299 298 298 303 300 294 295 297 293 299 299 299 298 296 295 290 291 295 298 296 293 295 291 287 290 290 290 287 297 290 288 288 290 292 292 291
310 309 306 307 307 306 308 307 305 298 298 298 300 295 296 292 296 296 298 299 298 297 297 291 287 291 295 289 291 290 290 289 288 293 290 290 293 289 289 285 286 289 292 291 290
309 306 304 305 304 302 305 304 299 297 296 297 296 297 294 295 297 295 299 297 299 297 296 296 294 292 292 297 297 293 291 294 290 287 292 294 297 285 285 285 290 292 293 292 291
308 305 304 303 306 304 300 298 297 298 297 296 295 296 296 293 296 298 298 298 299 296 296 296 288 286 292 293 294 292 295 295 289 294 294 290 292 285 283 285 293 292 294 291 290
307 302 299 301 301 302 304 302 300 297 297 296 298 296 296 294 296 295 298 296 297 297 297 297 296 290 292 289 286 291 295 297 293 286 289 292 294 295 293 285 288 292 294 291 288
306 304 303 300 300 301 303 303 302 302 296 296 296 296 295 297 295 294 296 296 296 297 297 294 291 294 294 292 290 294 293 291 293 294 291 294 288 292 293 289 293 294 293 291 288
306 304 302 302 302 301 303 303 304 302 296 297 295 297 296 294 298 297 296 297 296 295 295 295 288 286 286 292 293 292 293 292 291 292 291 294 294 294 294 292 293 292 291 291 287
305 305 304 303 300 301 302 302 301 301 301 300 297 296 296 297 298 297 297 297 296 295 295 292 287 284 287 290 288 291 288 287 286 284 286 287 289 279 283 281 291 291 291 290 287

GFSSW_850_thetae_285.txt.gz
Theta_e
301 301 302 300 300 300 300 300 300 300 300 300 301 301 302 302 300 302 302 301 301 301 302 301 302 302 302 304 304 305 300 301 302 302 302 300 300 301 301 301 301 302 302 303 303
305 307 308 307 304 301 301 301 300 300 301 300 301 301 302 302 300 301 301 300 301 301 302 302 302 302 302 302 303 300 297 300 299 299 299 300 300 301 301 301 302 303 302 303 303
309 309 310 310 308 305 302 302 300 301 301 300 300 301 301 305 302 301 301 301 301 302 302 302 303 303 303 302 302 301 300 300 301 302 302 301 301 302 301 301 302 302 303 303 303
311 312 311 311 312 311 305 304 300 301 300 300 300 299 302 301 302 301 301 301 302 302 302 303 303 303 301 302 303 300 302 302 301 303 303 302 302 301 301 303 303 303 303 303 302
314 314 314 314 313 312 310 307 302 302 301 299 301 301 302 300 300 301 301 301 302 302 303 304 304 303 301 302 303 302 302 302 303 303 303 303 302 301 302 303 303 303 303 303 302
315 315 315 315 314 314 313 310 302 304 304 300 299 300 301 300 300 301 301 301 302 302 303 303 303 304 303 303 302 302 302 302 303 303 303 302 301 301 303 304 303 303 303 303 303
315 316 316 316 315 315 314 312 305 307 304 299 299 299 300 298 299 301 301 302 302 302 303 304 303 304 304 303 302 302 302 300 303 303 302 301 300 299 302 302 302 302 303 302 302
315 316 316 316 316 315 315 315 311 304 305 299 299 300 299 299 299 301 301 302 302 301 301 303 304 304 304 304 302 298 298 298 301 302 302 301 300 299 302 302 301 301 302 301 301
315 315 315 315 316 315 315 314 312 304 309 300 299 301 299 299 299 301 302 301 302 301 302 303 305 303 301 301 298 295 294 300 300 301 301 302 300 300 302 301 300 300 300 301 300
315 315 315 315 315 315 315 314 311 306 309 304 300 301 299 298 299 301 302 302 303 304 303 304 305 296 294 295 296 295 297 299 299 300 301 300 300 299 300 299 299 300 300 299 299
315 315 316 315 316 315 314 314 312 310 309 304 299 298 298 298 300 300 301 302 303 302 300 301 298 296 300 299 298 299 300 299 298 299 298 298 297 298 298 298 298 299 299 299 298
316 315 316 315 314 313 314 313 309 307 304 301 296 296 297 297 300 300 300 301 299 295 298 296 297 299 300 300 301 299 294 294 297 298 298 297 297 298 297 297 299 298 298 298 297
316 316 316 315 313 313 311 311 310 306 301 301 297 295 296 298 299 300 300 301 296 293 292 295 301 300 300 300 299 299 295 294 299 298 296 295 296 296 298 298 298 298 298 297 296
314 314 315 313 311 310 311 310 308 306 299 303 297 297 297 298 300 300 299 300 300 294 297 296 301 300 300 300 298 295 298 299 299 293 292 295 295 296 297 298 296 297 297 297 297
308 315 312 307 307 309 308 310 309 304 303 298 297 296 298 299 300 300 300 300 301 298 293 296 301 300 299 300 297 298 298 298 295 286 293 290 291 296 296 298 297 296 296 297 295
306 306 306 306 307 307 309 309 308 301 301 297 296 296 297 299 299 300 300 301 299 299 298 294 299 298 298 298 298 296 293 291 290 285 289 287 290 296 295 296 296 296 297 296 295
305 306 308 308 307 307 308 309 302 303 298 299 296 296 296 297 298 298 298 299 298 294 290 294 297 297 297 298 296 293 285 287 289 286 292 280 291 295 294 294 294 294 297 295 295
306 308 308 308 307 307 308 301 296 294 296 300 296 298 299 296 298 297 297 297 297 294 287 289 294 292 297 297 292 294 287 288 286 288 289 283 292 294 293 295 296 296 295 294 296
308 308 307 307 307 306 307 300 298 297 304 300 300 296 294 298 294 293 297 295 298 293 292 291 292 295 296 298 294 291 291 290 284 279 285 286 288 292 293 289 292 293 293 294 296
309 307 308 307 307 306 304 305 299 303 297 298 305 300 295 292 297 291 295 297 299 296 292 292 292 290 294 297 293 290 291 291 286 288 285 285 280 291 288 289 288 290 293 296 296
308 308 306 306 307 307 306 302 303 305 297 298 302 298 300 295 293 292 295 298 297 295 294 288 287 290 295 290 290 294 288 288 286 289 287 286 290 285 287 286 285 287 295 296 296
307 305 305 306 305 304 305 303 301 299 298 298 298 300 301 295 294 290 296 296 297 296 295 294 291 289 292 293 292 291 288 292 291 286 286 290 293 286 284 279 284 290 294 296 295
307 306 305 305 303 304 302 301 299 299 297 297 297 297 295 294 296 297 297 298 297 295 295 296 287 287 294 292 293 292 293 293 289 291 289 290 294 281 277 282 290 290 294 293 293
305 303 302 302 301 301 302 304 304 298 297 297 297 296 295 293 295 296 297 296 297 297 297 297 293 291 296 293 285 292 295 296 296 289 294 294 296 296 295 293 290 290 293 293 292
303 303 302 300 300 301 303 303 303 302 296 296 294 296 295 295 295 293 296 296 296 297 297 293 289 292 291 290 286 293 293 294 295 296 293 297 289 294 294 292 292 293 293 294 292
302 302 302 299 300 299 302 303 304 302 297 298 294 298 296 296 299 297 296 296 295 295 295 293 288 285 284 293 293 291 293 294 293 294 294 294 294 295 295 293 290 292 293 294 292
299 301 303 303 300 300 302 302 301 300 301 302 297 296 296 297 298 298 296 296 296 295 296 293 290 288 289 286 285 292 293 292 288 283 291 292 293 291 290 283 287 292 292 293 294

GFSSW_850_thetae_288.txt.gz
Theta_e
308 309 308 307 302 302 301 300 301 301 301 301 301 301 302 302 300 302 302 302 301 302 301 302 302 302 304 305 305 305 301 302 302 301 302 300 300 300 301 301 301 301 301 302 303
310 310 311 312 307 304 303 301 301 301 301 300 301 301 302 303 301 301 301 301 301 301 302 302 302 302 302 302 302 299 298 300 299 299 299 300 300 301 301 301 301 302 301 302 302
312 313 313 312 312 310 306 304 301 301 301 300 300 301 301 303 302 301 301 301 302 302 302 302 302 303 302 302 301 299 299 299 300 301 301 301 300 301 301 300 301 302 301 302 302
314 314 314 313 314 313 310 306 302 302 302 300 300 300 302 303 303 301 302 302 302 303 302 303 303 302 301 301 302 300 302 301 300 302 302 301 302 301 301 302 302 303 303 303 303
315 315 315 315 314 314 314 310 302 306 305 301 300 301 302 300 300 301 302 302 302 303 303 303 303 302 301 302 302 301 301 301 302 302 302 302 302 301 301 303 303 303 303 303 303
315 316 316 315 315 315 315 314 308 305 306 301 300 300 300 299 299 301 301 302 302 303 303 303 303 303 302 302 301 301 301 301 302 303 302 302 301 301 302 303 303 302 302 303 302
315 315 315 315 316 315 315 314 313 304 309 301 300 300 300 299 299 301 301 302 301 302 304 303 303 304 303 302 302 302 302 300 301 302 301 301 298 298 301 302 302 301 301 301 302
315 315 315 315 315 315 314 314 313 309 309 302 300 300 300 299 299 301 301 302 301 301 302 303 304 304 304 303 300 297 297 297 299 301 301 301 298 299 301 301 301 301 300 300 301
315 315 315 315 315 315 315 314 312 310 309 304 299 301 299 299 299 301 302 302 302 302 302 304 304 301 302 300 298 295 295 299 298 300 300 301 299 298 300 300 300 299 299 300 300
315 315 315 316 315 314 314 313 312 309 309 306 302 302 299 298 299 300 301 302 303 303 303 304 303 296 294 295 296 295 296 299 298 299 299 299 299 299 299 298 298 298 299 299 300
316 315 315 316 315 314 310 310 311 310 309 304 300 297 298 298 300 300 301 302 302 301 299 301 298 296 299 298 297 297 299 299 298 298 298 298 297 298 298 297 296 298 299 300 299
317 316 315 315 314 312 308 310 308 306 304 303 298 296 297 297 300 300 300 301 299 296 297 295 296 299 298 299 300 298 294 294 297 297 298 296 297 297 295 295 298 299 300 300 298
316 314 314 315 314 310 307 308 309 307 301 302 296 296 296 298 300 300 300 301 296 294 293 296 301 299 300 300 299 298 295 294 298 297 295 294 294 295 296 297 298 298 298 298 298
315 312 315 313 308 306 308 309 309 306 297 303 296 296 297 299 300 300 300 299 299 295 297 296 300 300 300 300 298 295 297 299 298 291 291 294 293 296 296 295 297 298 298 298 298
308 308 308 306 306 307 307 309 308 305 305 298 296 296 298 300 300 300 300 300 301 297 293 297 300 300 298 300 297 297 297 298 294 286 291 290 290 295 295 297 296 296 298 299 298
309 307 305 306 306 307 307 307 307 303 302 298 296 296 298 299 299 299 300 301 299 299 298 294 298 298 299 297 297 294 292 290 287 282 288 286 288 294 295 295 297 296 298 299 299
304 305 306 306 306 306 307 308 302 302 298 299 296 296 296 297 298 297 298 298 298 296 293 294 297 296 297 298 296 293 286 288 290 287 292 279 290 295 294 293 294 293 297 298 298
304 307 308 307 307 306 308 299 298 293 293 301 296 299 299 296 297 295 297 297 296 294 287 290 295 292 296 296 292 294 287 289 287 289 288 281 290 294 292 293 294 294 295 296 298
307 307 307 307 307 306 307 298 299 296 303 301 302 298 295 297 294 293 296 295 298 292 294 290 292 294 296 296 293 291 291 288 282 277 283 285 287 291 292 287 292 294 295 297 297
306 307 307 307 307 306 302 304 299 301 297 299 303 300 296 293 299 291 296 296 299 295 291 291 292 289 293 295 292 290 290 290 285 287 286 286 280 293 289 285 287 288 293 296 295
306 306 306 306 307 306 302 296 299 304 298 299 301 297 299 295 294 293 296 297 297 295 293 287 287 290 294 292 292 293 289 286 286 288 288 286 291 287 287 284 284 285 294 295 294
306 304 305 306 305 302 305 302 301 300 298 298 297 299 298 297 295 291 296 296 297 295 295 293 291 289 292 293 292 290 288 291 291 287 284 289 294 290 284 277 283 290 294 294 294
305 305 304 305 302 302 301 302 300 298 296 296 296 298 295 291 296 296 297 297 297 295 295 295 288 288 296 293 292 292 292 291 289 291 288 290 296 284 276 279 291 290 294 294 294
303 302 302 302 301 301 302 302 302 299 298 297 297 296 296 294 294 296 298 296 296 296 297 297 294 292 299 295 286 292 293 294 293 290 295 295 297 298 298 296 294 293 293 294 293
301 302 302 300 301 300 302 302 299 302 297 296 293 295 295 297 294 291 295 296 295 297 297 295 292 292 292 291 286 291 291 293 293 293 294 298 294 297 297 296 295 295 295 293 293
302 300 300 299 299 299 301 302 302 302 300 299 294 297 295 294 299 299 296 296 296 295 295 293 288 285 285 292 292 290 292 294 293 293 294 295 294 295 295 294 292 293 293 292 292
296 299 301 301 298 298 300 301 301 300 301 302 297 297 296 296 297 299 299 297 296 295 296 293 288 286 289 286 285 291 291 293 288 286 289 289 294 293 291 287 290 293 292 292 293

GFSSW_850_thetae_291.txt.gz
Theta_e
310 311 311 310 306 305 304 301 302 302 301 301 302 302 302 302 301 302 302 301 302 302 301 302 302 303 305 306 306 305 302 302 303 301 302 300 299 300 301 301 301 301 301 301 304
313 313 312 312 312 309 308 305 302 302 301 301 301 301 301 303 301 301 301 301 301 302 302 302 302 302 302 303 303 300 300 301 298 299 299 299 300 301 301 300 301 301 301 302 302
314 315 315 314 314 313 311 305 303 308 305 302 300 300 301 302 301 301 301 301 302 302 302 302 302 302 302 301 301 299 299 299 300 300 301 300 300 301 300 300 301 301 301 301 302
315 315 315 315 315 314 314 312 304 308 307 303 301 301 302 302 302 301 301 302 302 303 302 303 303 302 300 300 302 300 300 299 300 302 301 301 301 301 300 302 302 302 302 302 302
315 315 315 315 315 315 314 314 313 304 309 303 301 300 302 300 300 301 301 302 302 303 303 303 302 302 301 301 301 301 301 301 301 302 302 302 301 301 301 303 302 302 302 303 303
315 315 315 315 315 315 315 314 313 311 308 303 300 300 301 299 299 301 302 302 303 303 303 303 303 303 302 301 300 301 301 301 302 302 302 301 301 300 302 302 302 302 302 301 301
315 315 315 315 315 315 314 314 313 312 308 306 300 300 301 299 300 301 302 302 302 303 303 303 303 303 302 301 302 301 301 300 301 301 301 300 297 298 301 302 302 302 301 301 300
315 315 314 315 315 314 315 315 313 312 308 307 301 301 300 299 300 302 302 302 301 301 303 304 303 304 303 302 299 297 298 298 299 300 301 300 299 298 301 301 301 301 301 299 299
315 315 315 314 315 315 314 310 310 311 309 308 301 301 299 300 299 301 302 302 302 302 303 304 303 301 302 299 298 296 297 299 299 299 299 301 299 298 300 300 300 300 300 299 299
316 315 315 315 315 314 312 306 310 309 309 306 304 304 300 298 300 300 302 302 303 303 303 303 302 297 295 297 301 297 297 298 298 298 298 298 298 298 298 298 298 298 298 298 299
317 317 316 315 314 314 308 306 307 309 307 304 300 297 297 298 300 300 301 302 302 301 299 300 299 298 299 298 296 297 299 299 297 297 298 297 297 298 297 296 295 296 297 299 299
317 316 315 313 314 309 305 306 308 306 305 303 299 296 297 298 300 301 301 301 300 297 297 296 297 298 298 299 299 298 294 294 296 297 298 296 297 296 295 295 297 298 299 300 299
314 314 311 314 308 306 306 307 308 307 302 302 296 296 296 298 300 300 301 301 296 294 293 297 300 299 299 299 299 298 295 294 298 297 294 294 295 294 295 296 298 298 299 299 299
308 310 309 308 307 306 306 307 307 305 299 303 296 297 298 299 300 300 300 300 298 295 296 296 300 300 300 299 298 296 297 298 297 293 293 293 295 296 295 295 296 298 298 299 299
311 309 308 306 305 306 306 306 307 304 304 299 296 296 298 300 300 300 300 300 300 297 293 297 299 300 298 299 297 297 296 297 293 291 290 290 291 295 294 296 295 295 298 299 299
304 306 305 305 305 306 305 307 306 303 303 298 296 296 300 299 299 299 300 300 299 298 297 294 298 297 298 296 296 294 291 290 286 284 290 285 291 296 295 295 296 296 297 297 297
302 303 305 305 305 306 306 308 300 300 297 299 296 297 296 297 298 296 297 298 297 296 292 293 296 296 296 297 295 292 287 290 293 290 295 278 290 296 294 293 293 294 297 297 297
303 305 306 306 307 306 307 298 296 292 292 301 296 300 300 296 296 295 297 296 295 294 287 290 296 291 295 295 291 293 288 290 290 291 291 281 291 296 292 293 294 294 295 296 296
307 306 307 307 307 306 307 296 297 294 302 301 302 298 297 297 295 294 296 294 297 291 294 290 292 294 296 295 292 291 290 288 283 276 285 287 288 291 292 287 291 293 294 296 296
305 306 306 307 306 306 299 299 297 300 297 299 302 300 296 293 299 293 298 296 298 294 291 291 292 289 293 295 292 289 290 291 286 289 289 288 282 294 290 287 284 289 293 295 296
306 305 305 306 306 305 301 298 297 302 300 299 301 297 299 294 295 292 297 297 297 294 292 287 288 290 294 291 292 292 290 287 287 289 290 288 295 286 287 286 286 287 293 296 296
305 301 304 306 304 301 303 301 300 300 299 297 297 299 296 294 295 289 295 295 297 295 294 293 291 289 290 292 292 291 290 292 293 290 285 289 294 285 285 278 284 290 296 297 296
304 304 303 305 302 293 300 299 302 301 296 295 296 298 296 297 296 296 295 297 296 294 294 294 288 288 296 292 291 292 292 292 289 291 288 292 297 285 280 284 293 290 297 297 296
301 299 302 303 302 301 300 298 302 300 299 297 297 296 296 295 295 299 298 296 296 296 297 296 293 292 298 295 287 292 294 293 293 289 294 294 297 298 297 296 294 295 296 295 295
301 299 298 300 300 300 301 302 299 300 298 297 293 297 296 300 295 294 295 296 295 297 298 296 291 292 290 289 286 290 290 293 292 292 294 298 293 296 297 296 295 295 295 295 294
299 299 298 299 299 296 299 300 300 300 300 299 294 296 295 296 299 299 295 296 297 295 295 293 293 285 286 292 292 291 292 292 293 293 292 294 294 295 294 294 293 294 294 294 295
296 297 298 299 298 299 299 298 298 300 300 301 298 297 297 297 298 298 299 300 298 295 296 293 288 286 291 286 285 292 290 293 287 285 290 289 292 280 289 285 290 293 294 294 294